[[{"header":{"parameterUnit":"m.s-1","parameterCategory":1,"la1":30.2991,"la2":30.254,"lo1":-89.0895,"lo2":-89.0444,"dy":0.0017,"dx":0.0017,"nx":28,"ny":28,"refTime":"2024-04-22T03:00:00:Z","depth":0,"parameterNumber":2,"parameterNumberName":"U-component_of_WINDS"},"data":[0,0,0,0,0,0,0,0,0,0,0,0,0,0,0,0,0,0,0,0,0,0,0,0,0,0,0,0,0,0,0,0,0,0,0,0,0,0,0,0,0,0,0,0,0,0,0,0,0,0,0,0,0,0,0,0,0,0,-2.5551,-2.5551,0,-2.5574,-2.5574,-2.5574,-2.5554,-2.5554,-2.5553,-2.5552,-2.5574,-2.5576,-2.5577,0,0,0,0,0,0,0,0,0,0,0,0,0,-2.549,-2.5492,-2.5551,-2.5551,-2.5552,-2.5574,-2.5574,-2.5574,-2.5555,-2.5554,-2.5553,-2.5552,-2.5574,-2.5575,-2.5577,0,0,0,0,0,0,0,0,0,0,0,0,0,-2.5515,-2.5492,-2.5551,-2.5544,-2.5544,-2.5574,-2.5574,-2.5574,-2.5555,-2.5554,-2.5552,-2.5551,-2.5573,-2.5575,-2.5577,-2.5614,0,0,-2.5583,-2.5584,0,0,0,0,0,0,0,0,-2.5514,-2.5518,-2.5545,-2.5545,-2.5545,-2.556,-2.5561,-2.5588,-2.5555,-2.5551,-2.5552,-2.5551,-2.557,-2.5573,-2.558,-2.5615,-2.5616,-2.5584,-2.5585,-2.5586,-2.5586,0,0,0,0,0,0,0,-2.5512,-2.5516,-2.556,-2.5546,-2.5545,-2.554,-2.5543,-2.5566,-2.5567,-2.5551,-2.555,-2.5553,-2.557,-2.5578,-2.558,-2.5617,-2.5584,-2.5585,-2.5587,-2.5587,-2.5685,-2.5686,0,0,0,0,0,0,-2.5511,-2.5515,-2.5559,-2.5561,-2.5526,-2.5542,-2.5545,-2.5556,-2.5567,-2.5567,-2.5554,-2.5552,-2.5575,-2.5578,-2.5581,-2.5625,-2.5586,-2.5588,-2.5589,-2.5683,-2.5685,-2.5686,0,0,0,0,0,0,-2.551,-2.5515,-2.5558,-2.5538,-2.5543,-2.5545,-2.5558,-2.5557,-2.5565,-2.5569,-2.5569,-2.5561,-2.5574,-2.5578,-2.5606,-2.5625,-2.5589,-2.559,-2.5682,-2.5684,-2.5686,-2.5713,0,0,0,0,0,0,-2.5508,-2.5515,-2.5529,-2.5538,-2.5544,-2.5584,-2.5559,-2.5559,-2.5569,-2.5566,-2.5576,-2.5576,-2.5573,-2.5603,-2.5608,-2.5627,-2.5592,-2.568,-2.5682,-2.5685,-2.571,-2.5715,-2.572,0,0,0,0,0,-2.5506,-2.5536,-2.553,-2.5535,-2.5561,-2.5585,-2.5588,-2.5584,-2.557,-2.5584,-2.5587,-2.5576,-2.5623,-2.5606,-2.5612,-2.5632,-2.5679,-2.5682,-2.5685,-2.5708,-2.5714,-2.572,0,0,0,0,0,0,-2.5528,-2.5536,-2.553,-2.5563,-2.5574,-2.5581,-2.5599,-2.5591,-2.5605,-2.5602,-2.5597,-2.5599,-2.5629,-2.5634,-2.5615,-2.5668,-2.5648,-2.5653,-2.5664,-2.567,-2.5675,-2.5673,-2.5594,0,0,0,0,0,-2.5537,-2.5555,-2.5562,-2.559,-2.5596,-2.5597,-2.5607,-2.5603,-2.5613,-2.5617,-2.5622,-2.5632,-2.5649,-2.566,-2.5676,-2.5711,-2.5713,-2.5728,-2.5733,-2.5737,-2.574,-2.5759,-2.5766,-2.5696,-2.5696,-2.5696,0,0,-2.5554,-2.5562,-2.5573,-2.5595,-2.5602,-2.5621,-2.56,-2.5621,-2.5635,-2.562,-2.5647,-2.5651,-2.5662,-2.5695,-2.5709,-2.5699,-2.576,-2.5741,-2.5744,-2.5745,-2.5763,-2.577,-2.5775,-2.5698,-2.5698,-2.5698,0,0,-2.5597,-2.5604,-2.5629,-2.5637,-2.5649,-2.565,-2.5656,-2.5665,-2.5667,-2.5695,-2.5684,-2.5701,-2.573,-2.5739,-2.5747,-2.5794,-2.5784,-2.5799,-2.5824,-2.5843,-2.5849,-2.5853,-2.587,-2.5876,-2.5803,-2.5803,-2.5803,0,-2.5617,-2.5645,-2.5642,-2.5664,-2.5674,-2.5662,-2.5687,-2.5695,-2.5712,-2.5719,-2.5708,-2.5745,-2.5751,-2.5785,-2.5797,-2.5804,-2.5811,-2.5797,-2.5848,-2.5853,-2.5857,-2.5873,-2.5879,-2.5805,-2.5805,-2.5804,-2.5804,0,-2.567,-2.569,-2.5708,-2.5725,-2.5737,-2.576,-2.5761,-2.5773,-2.5769,-2.5771,-2.58,-2.5808,-2.5825,-2.5833,-2.5829,-2.5867,-2.586,-2.5849,-2.5828,-2.5866,-2.588,-2.5886,-2.5807,-2.5807,-2.5806,-2.5806,0,0,-2.5724,-2.574,-2.5747,-2.5754,-2.5768,-2.5783,-2.5806,-2.5824,-2.5834,-2.5847,-2.5866,-2.5892,-2.5882,-2.5891,-2.5888,-2.5905,-2.5941,-2.5891,-2.5892,-2.59,-2.5983,-2.5991,-2.5998,-2.5936,-2.5937,-2.5938,-2.5982,0,-2.5766,-2.5806,-2.5805,-2.5842,-2.5861,-2.5851,-2.5872,-2.5882,-2.5885,-2.5901,-2.5904,-2.5922,-2.5908,-2.5914,-2.593,-2.5934,-2.5958,-2.5931,-2.5953,-2.5954,-2.5949,-2.6005,-2.6013,-2.6054,-2.5988,-2.5989,-2.599,0,-2.582,-2.5835,-2.5874,-2.5885,-2.5893,-2.5911,-2.5928,-2.5943,-2.5955,-2.5956,-2.5968,-2.5962,-2.5986,-2.5966,-2.5999,-2.598,-2.599,-2.5993,-2.5995,-2.5995,-2.5973,-2.6007,-2.6068,-2.6073,-2.5999,-2.5998,-2.5997,0,-2.5855,-2.5885,-2.5912,-2.5919,-2.5933,-2.5946,-2.5952,-2.5963,-2.5974,-2.5989,-2.5996,-2.6013,-2.6022,-2.6035,-2.6035,-2.6021,-2.6068,-2.6048,-2.6069,-2.6069,-2.6078,-2.6077,-2.614,-2.6086,-2.6086,-2.6086,-2.6086,0,-2.5901,-2.5926,-2.5928,-2.5945,-2.5972,-2.5971,-2.5998,-2.6003,-2.6013,-2.603,-2.6024,-2.604,-2.6039,-2.6057,-2.6057,-2.6083,-2.6088,-2.6089,-2.6089,-2.6089,-2.6089,-2.6094,-2.6091,-2.6088,-2.6087,-2.6087,-2.6087,0,-2.5944,-2.5947,-2.5976,-2.5987,-2.5991,-2.601,-2.602,-2.6036,-2.6039,-2.6062,-2.6067,-2.6071,-2.6091,-2.6093,-2.6116,-2.6116,-2.6148,-2.6145,-2.6144,-2.6143,-2.6164,-2.6161,-2.6231,-2.624,-2.6181,-2.6182,-2.6182,0,-2.5973,-2.5991,-2.6005,-2.6016,-2.6024,-2.6042,-2.6054,-2.6054,-2.6066,-2.6081,-2.6096,-2.6115,-2.613,-2.6163,-2.6168,-2.6186,-2.6182,-2.6206,-2.6185,-2.6185,-2.6182,-2.618,-2.6182,-2.6209,-2.621,-2.621,-2.6211,0,-2.6023,-2.6024,-2.604,-2.6058,-2.6072,-2.6086,-2.6099,-2.6109,-2.611,-2.6124,-2.6145,-2.6157,-2.6181,-2.62,-2.6218,-2.6224,-2.6218,-2.6218,-2.6223,-2.6223,-2.6222,-2.6222,-2.6154,-2.6216,-2.6215,-2.6215,-2.6215,-2.6214,-2.6059,-2.6075,-2.6087,-2.6107,-2.6117,-2.6129,-2.6145,-2.615,-2.6168,-2.6187,-2.6186,-2.6209,-2.6221,-2.6244,-2.6253,-2.627,-2.6262,-2.6271,-2.6273,-2.6274,-2.6276,-2.622,-2.6274,-2.6274,-2.6273,-2.6273,-2.6273,0,-2.6108,-2.6116,-2.6134,-2.6153,-2.6168,-2.6162,-2.6176,-2.6189,-2.6209,-2.6221,-2.6237,-2.6261,-2.628,-2.6287,-2.6306,-2.6319,-2.6316,-2.6324,-2.6322,-2.6324,-2.6282,-2.6275,-2.6325,-2.6325,-2.6325,-2.6325,-2.6325,-2.6325,-2.6136,-2.6163,-2.6165,-2.6198,-2.6205,-2.6228,-2.6236,-2.6248,-2.6258,-2.6285,-2.6301,-2.6306,-2.6316,-2.6336,-2.6353,-2.6355,-2.6362,-2.637,-2.6371,-2.6332,-2.6327,-2.6321,-2.6315,-2.6372,-2.6372,-2.641,-2.6411,-2.6411]},{"header":{"parameterUnit":"m.s-1","parameterCategory":1,"la1":30.2991,"la2":30.254,"lo1":-89.0895,"lo2":-89.0444,"dy":0.0017,"dx":0.0017,"nx":28,"ny":28,"refTime":"2024-04-22T03:00:00:Z","depth":0,"parameterNumber":3,"parameterNumberName":"V-component_of_WINDS"},"data":[0,0,0,0,0,0,0,0,0,0,0,0,0,0,0,0,0,0,0,0,0,0,0,0,0,0,0,0,0,0,0,0,0,0,0,0,0,0,0,0,0,0,0,0,0,0,0,0,0,0,0,0,0,0,0,0,0,0,3.6509,3.651,0,3.6534,3.6535,3.6535,3.6559,3.6559,3.656,3.656,3.6582,3.6582,3.6583,0,0,0,0,0,0,0,0,0,0,0,0,0,3.648,3.6481,3.6509,3.651,3.651,3.6534,3.6535,3.6535,3.6559,3.6559,3.656,3.656,3.6582,3.6582,3.6583,0,0,0,0,0,0,0,0,0,0,0,0,0,3.6498,3.6481,3.6509,3.6525,3.6527,3.6534,3.6535,3.6535,3.6559,3.6559,3.656,3.656,3.6582,3.6582,3.6583,3.6576,0,0,3.6584,3.6584,0,0,0,0,0,0,0,0,3.6497,3.6499,3.6522,3.6524,3.6526,3.6544,3.6533,3.6549,3.6559,3.6547,3.656,3.6561,3.6569,3.657,3.6574,3.6577,3.6578,3.6584,3.6584,3.6584,3.6585,0,0,0,0,0,0,0,3.6496,3.6498,3.6519,3.6523,3.6525,3.653,3.6533,3.6536,3.6555,3.6548,3.655,3.6552,3.657,3.6573,3.6575,3.6578,3.6584,3.6584,3.6585,3.6585,3.6578,3.6578,0,0,0,0,0,0,3.6492,3.6497,3.6518,3.652,3.6512,3.653,3.6534,3.6538,3.6555,3.6558,3.6552,3.6553,3.6572,3.6574,3.6575,3.6569,3.6584,3.6585,3.6585,3.6579,3.6578,3.6578,0,0,0,0,0,0,3.6492,3.6494,3.6517,3.6509,3.6512,3.653,3.6535,3.6538,3.6542,3.6558,3.6561,3.6552,3.6573,3.6575,3.6576,3.657,3.6585,3.6585,3.6579,3.6578,3.6578,3.6556,0,0,0,0,0,0,3.6491,3.6494,3.6491,3.6509,3.6513,3.6518,3.6534,3.6538,3.6543,3.6545,3.6559,3.6562,3.6573,3.6575,3.6577,3.6571,3.6586,3.658,3.6579,3.6578,3.6558,3.6555,3.6553,0,0,0,0,0,3.649,3.6483,3.6491,3.6494,3.6511,3.6518,3.652,3.6534,3.6542,3.654,3.6551,3.6561,3.6571,3.6575,3.6577,3.6572,3.658,3.6579,3.6578,3.6559,3.6556,3.6553,0,0,0,0,0,0,3.6463,3.6486,3.6495,3.6494,3.6504,3.6522,3.6519,3.653,3.6537,3.6539,3.6556,3.6559,3.6558,3.6565,3.6569,3.6567,3.6577,3.6576,3.6562,3.6559,3.6557,3.6555,3.6586,0,0,0,0,0,3.6457,3.6462,3.6482,3.6479,3.6484,3.6501,3.6504,3.6515,3.6525,3.6529,3.654,3.6549,3.6554,3.6557,3.6563,3.6559,3.6563,3.6557,3.6554,3.6552,3.6551,3.6551,3.6548,3.6574,3.6574,3.6574,0,0,3.6445,3.6458,3.646,3.6474,3.6483,3.6487,3.6504,3.6507,3.6511,3.6529,3.6532,3.654,3.6551,3.6551,3.6551,3.6556,3.6545,3.6551,3.6549,3.6549,3.6549,3.6547,3.6545,3.6574,3.6574,3.6574,0,0,3.6425,3.6436,3.6435,3.6445,3.6459,3.6471,3.6471,3.6487,3.6494,3.6497,3.6512,3.6516,3.6524,3.6532,3.6537,3.6522,3.6532,3.6524,3.6511,3.651,3.6508,3.6506,3.6502,3.65,3.6523,3.6522,3.6522,0,3.6408,3.6416,3.6433,3.6437,3.6443,3.6462,3.6462,3.647,3.6484,3.6488,3.6494,3.6507,3.6515,3.6517,3.6514,3.6517,3.6518,3.6521,3.6507,3.6506,3.6504,3.65,3.6498,3.6521,3.6521,3.6522,3.6522,0,3.6394,3.6399,3.6397,3.6413,3.6419,3.642,3.6438,3.6442,3.6452,3.6463,3.6467,3.6478,3.6487,3.6489,3.6498,3.6492,3.6495,3.6504,3.6515,3.65,3.6497,3.6495,3.652,3.652,3.652,3.6521,0,0,3.6356,3.6384,3.6383,3.6391,3.6409,3.6413,3.6415,3.6426,3.6429,3.6439,3.6441,3.6449,3.6458,3.6464,3.6475,3.6475,3.6463,3.6484,3.6484,3.648,3.6458,3.6451,3.6449,3.6471,3.647,3.647,3.6457,0,3.6339,3.6346,3.6363,3.6365,3.637,3.639,3.6393,3.6404,3.6414,3.642,3.6432,3.6437,3.6449,3.6452,3.6453,3.6464,3.6459,3.6466,3.6473,3.6473,3.6469,3.6447,3.6439,3.6426,3.6456,3.6456,3.6455,0,3.632,3.6331,3.6333,3.6353,3.6356,3.6358,3.637,3.6375,3.6388,3.6396,3.6404,3.6417,3.642,3.6431,3.6436,3.6441,3.6445,3.6451,3.6451,3.6451,3.6463,3.6447,3.6423,3.6421,3.6453,3.6453,3.6454,0,3.6293,3.6308,3.6312,3.6318,3.6341,3.6342,3.6351,3.6365,3.6371,3.6381,3.6385,3.6394,3.64,3.6407,3.6422,3.6428,3.6426,3.6437,3.6432,3.6432,3.643,3.643,3.6406,3.6433,3.6433,3.6433,3.6433,0,3.6272,3.6273,3.63,3.6302,3.6304,3.6324,3.6325,3.6336,3.6349,3.6353,3.637,3.6374,3.6394,3.64,3.6412,3.6415,3.6417,3.6423,3.6426,3.6421,3.642,3.6424,3.6425,3.6432,3.6432,3.6432,3.6433,0,3.6241,3.6259,3.6265,3.6287,3.6293,3.6293,3.6312,3.6315,3.6328,3.6333,3.6336,3.6355,3.6363,3.6379,3.6391,3.6399,3.64,3.6405,3.6395,3.6397,3.6391,3.6392,3.6368,3.6366,3.6394,3.6394,3.6394,0,3.6226,3.6228,3.6251,3.6256,3.6265,3.6273,3.628,3.63,3.6306,3.6322,3.6323,3.6333,3.6342,3.6354,3.6369,3.6378,3.6384,3.6375,3.6385,3.6381,3.6384,3.6384,3.6384,3.6373,3.6372,3.6372,3.6372,0,3.6198,3.6208,3.6218,3.6231,3.6239,3.625,3.6262,3.6265,3.6287,3.6293,3.6303,3.631,3.6324,3.6333,3.6346,3.6354,3.6367,3.6369,3.6368,3.6363,3.6358,3.6361,3.6389,3.6369,3.6369,3.6369,3.6369,3.637,3.6175,3.6178,3.6196,3.6206,3.6218,3.6229,3.6234,3.6248,3.6257,3.627,3.6281,3.629,3.6305,3.6323,3.6331,3.6338,3.6343,3.6342,3.6342,3.6341,3.634,3.6357,3.634,3.634,3.634,3.634,3.634,0,3.6149,3.6162,3.6171,3.6189,3.6197,3.621,3.6224,3.623,3.6238,3.6251,3.6261,3.6272,3.6282,3.6299,3.631,3.6312,3.6318,3.6314,3.6314,3.6316,3.6334,3.6333,3.6309,3.6309,3.6309,3.6309,3.6309,3.6309,3.6136,3.6142,3.6154,3.6166,3.6179,3.6189,3.6196,3.6206,3.6217,3.623,3.6239,3.625,3.6265,3.6278,3.6287,3.6292,3.6295,3.629,3.6296,3.6312,3.6315,3.6317,3.6317,3.629,3.629,3.6278,3.6278,3.6278]}]]